Location: Newark
(52.5667°N, 8.8000°W)
Time: 19:46:26
(UTC+00:00)

N. Korean satellite - Pass Details

Date: 01 February 2020
Orbit: 456 x 506 km, 97.2° (Epoch: 17 February)

Event Time Altitude Azimuth Distance (km) Brightness Sun altitude
Rises 18:04:01 0° 190° (S) 2,468 10.6 -6.9°
Reaches altitude 10° 18:06:13 10° 202° (SSW) 1,603 9.8 -7.3°
Maximum altitude 18:09:15 29° 265° (W) 883 8.8 -7.7°
Drops below altitude 10° 18:12:21 10° 327° (NNW) 1,633 9.4 -8.1°
Sets 18:14:37 0° 339° (NNW) 2,523 10.3 -8.5°
